Tracking 31027 objects as of 19-Jul-2025
HD Live streaming from Space Station
objects crossing your sky now

DELTA 1 R/B

Track DELTA 1 R/B now!
10-day predictions
DELTA 1 R/B is classified as:


NORAD ID: 20323
Int'l Code: 1989-089B
Perigee: 681.6 km
Apogee: 781.3 km
Inclination: 97.1 °
Period: 99.3 minutes
Semi major axis: 7102 km
RCS: 8.9124 m2 (large)
Launch date: November 18, 1989
Source: United States (US)
Launch site: AIR FORCE WESTERN TEST RANGE (AFWTR)

Note: This is a ROCKET BODY
Your satellite tracking list
ICEYE-X27
Track 1 satellite(s)




NASA's NSSDC Master Catalog

Two Line Element Set (TLE):
1 20323U 89089B   25199.63449172  .00000177  00000-0  52694-4 0  9991
2 20323  97.1002  79.0198 0070216 140.9693 219.6602 14.50414538861807
Source of the keplerian elements: AFSPC